Weather Roundup
Issued by NWS Chicago, IL

Home | Current Version | Previous Version | Text Only | Print | Product List | Glossary On
Versions: 1 2 3 4 5 6 7 8 9 10 11 12 13 14 15 16 17 18 19 20 21 22 23 24 25 26 27 28 29 30 31 32 33 34 35 36 37 38 39 40 41 42 43 44 45 46 47 48 49 50
000
NZUS59 KLOT 041110
HRRLOT

CHICAGO AREA WEATHER ROUNDUP
NATIONAL WEATHER SERVICE CHICAGO/ROMEOVILLE IL
500 AM CST WED MAR 04 2015

NOTE: "FAIR" INDICATES FEW OR NO CLOUDS BELOW 12,000 FEET WITH NO
SIGNIFICANT WEATHER AND/OR OBSTRUCTIONS TO VISIBILITY.

* THESE STATIONS ARE NOT UNDER NWS QUALITY CONTROL. THEY ALSO MAY NOT
  REPORT WEATHER SUCH AS PRECIPITATION OR FOG.

ILZ005-006-012>014-019>023-041200-
NORTHEAST ILLINOIS

CITY           SKY/WX    TMP DP  RH WIND       PRES   REMARKS
OHARE          MOCLDY    20  14  77 W14       29.97R WCI   7
MIDWAY         CLOUDY    24  17  74 W12       29.98R WCI  13
AURORA         CLEAR     15   8  73 W14       30.00R WCI   0
LANSING*       CLOUDY    28  21  75 W9G16     29.97R WCI  19
JOLIET*        CLEAR     18  11  76 W7G16     30.03R WCI   9
WAUKEGAN       PTCLDY    20  14  77 W7        29.95R WCI  11
DUPAGE AIRPORT CLEAR     17  11  77 NW9       29.97R WCI   6
WHEELING       PTCLDY    22  14  71 NW9       29.98R WCI  12
KANKAKEE*      CLOUDY    25  20  84 W13       30.01R WCI  13
MORRIS*          N/A     17  12  82 NW14      30.02R WCI   3
LEWIS AIRPORT* CLEAR     18  13  79 NW10G16   30.01R WCI   7
NORTHERLY IS     N/A     26  19  75 W8          N/A  WCI  18
$$

WIZ051-052-058>065-066-070>072-041200-
SOUTHEAST WISCONSIN

CITY           SKY/WX    TMP DP  RH WIND       PRES   REMARKS
MILWAUKEE      CLEAR     19   7  59 NW15G21   29.96R WCI   5
KENOSHA*         N/A     19   9  65 NW10      29.95R WCI   7
RACINE*        PTCLDY    20   9  62 NW9       29.97R WCI   9
BURLINGTON     CLEAR     15   8  75 NW10      29.97R WCI   2
WEST BEND      CLEAR     14   5  67 W9        29.95R WCI   2
$$

INZ001>003-010>013-019-020-041200-
NORTHWEST INDIANA

CITY           SKY/WX    TMP DP  RH WIND       PRES   REMARKS
GARY*          CLOUDY    30  19  64 W14       29.97R WCI  20
MICHIGAN CITY* NOT AVBL
RENSSELAER*    NOT AVBL
VALPARAISO     CLOUDY    29  22  75 W9        29.94R WCI  20
$$

LMZ740>746-041200-
SOUTHERN LAKE MICHIGAN

STATION/POSITION TIME  SKY/WX   TEMP WIND        PRES    VSBY
                                AIR  DIR/SP/G
                 (UTC)          (F)  (DEG/KT/KT) (MB)    (MI)
HARRISON CRIB    1100            25  290/ 18/ 22   N/A
BURNHAM HARBOR   1100            25  280/  8/ 15   N/A
CALUMET HARBOR   1100            27  260/  7/ 13 1013.5R
BURNS HARBOR     NOT AVBL
MICHIGAN CITY    1100            30  270/ 14/ 16   N/A
$$

ABBREVIATIONS USED IN REMARKS
   TC - TEMPERATURE IN CELSIUS
  WCI - WIND CHILL INDEX
   HX - HEAT INDEX
  VSB - VISIBILITY
$$


USA.gov is the U.S. government's official web portal to all federal, state and local government web resources and services.